User: anonymous   Login
Location: Fort Wayne
(41.1310°N, 85.1290°W)
Time: 19:05:46
(UTC-04:00)
Language:

Cosmos 2082 - Orbit

View from above orbital plane
View from above orbital plane
View from above satellite
View from above satellite

Ground track
Ground track

The orbit data is extracted from the following two-line orbital elements,

1 20624U 90046A   14294.96494497 -.00000053  00000-0 -32736-5 0   510
2 20624 071.0420 083.0485 0012987 058.0299 089.8370 14.14104494260171
Epoch (UTC): 21 October 2014 23:09:31
Eccentricity: 0.0012987
inclination: 71.0420°
perigee height: 836 km
apogee height: 855 km
right ascension of ascending node: 83.0485°
argument of perigee: 58.0299°
revolutions per day: 14.14104494
mean anomaly at epoch: 89.8370°
orbit number at epoch: 26017

The dashed part of the orbit path shows where the satellite is in the earth's shadow,  

DLR